DECAYED
Showing default

SHIYAN 22B (SY-22B), 55243 (Decayed)

Orbit data source: Space-Track

SHIYAN 22B (SY-22B), 55243 was a payload satellite owned by CASC (CN) in LEO that was launched on Fri, 13 Jan 2023 UTC via a CHANG ZHENG 2D launch vehicle from the Jiuquan Satellite Launch Center, China (JSC). Payload-class satellites include a variety of spacecraft equipped with specific instruments for various scientific and technological missions. These include communications satellites like Starlink; space stations such as the ISS; scientific satellites like the Hubble; Earth observation satellites from companies like Planet Labs, Umbra, and HawkEye 360; GPS; miniature CubeSats for education and research; and military/defense satellites.

Not visible in the next 10 days
Identifier
55243, 2023-006B
Orbit
Decayed
Country
Flag of CNCN / PRC
Related business
Manufacturer
Weina
Mission
Decayed Defense Technology
Bus & Motor
Unknown
Mass
~100 kg wet, ~100 kg dry
Launch date (UTC)
2023-01-13 (3 years ago)
Launch vehicle
CHANG ZHENG 2D
Launch site
Jiuquan Satellite Launch Center, China (JSC)
Object type
Payload
Rocket body
Debris
Shape & HBR
Box + 2 Pan, 1.0 m
Radar Cross Section
4.125 m², Large (>1 m²)

Expand to show TLE details & history
Last TLE update: 8 months ago

TLE from 8 months ago
0 SHIYAN 22B (SY-22B)
1 55243U 23006B   25285.28080677  .05907819  91338-5  10375-2 0  9996
2 55243  43.1742 229.7172 0009765 181.2581 178.8289 16.31623894154427
Epoch: 2025-10-12T06:44Z
TLE epoch observation values (Epoch: 2025-10-12T06:44:21.704Z)
Latitude
-0.00002°
Longitude
107.52655°
Altitude
194.375 km
Speed
7.788 km/s
True Right ascension
15h 18m 52s
True Declination
0° 00' 00"
Sunlit
Object was in daylight at epoch
Visualization orbit readout
Latitude
Unknown
Longitude
Unknown
Altitude
Unknown
Speed
Unknown
Apparent Right ascension
Unknown
Apparent Declination
Unknown
Sunlit
N/A
Visualization observer readout
Local Sidereal Time
21:25:51
Azimuth
Unknown
Elevation
Unknown
Doppler factor
Unknown
Orbital elements
Apogee altitude
196.595 km
Perigee altitude
183.767 km
Semi-major axis
6,568.318 km
Eccentricity
0.00098
Inclination
43.1742°
RAAN
229.7172°
Arg. of periapsis
181.2581°
True anomaly
178.83118°
Mean anomaly
178.8289°
Eccentric anomaly
178.83004°
Mean motion
4.0772 °/min
Orbital period
88.3 mins
BSTAR
0.0010375
Loading maneuver chart data...
Computing Atmospheric mass density...
Loading historical data...
Loading historical data...
Loading historical data...
Loading historical data...
Loading historical data...
Loading historical data...
Loading historical data...
Other satellites on launch #6 in the year 2023 (2023-01-13 UTC)

Documentation

Showing up to 5 results
|